Location: Unspecified
(0.0000°N, 0.0000°E)
Time: 00:38:30
(UTC+00:00)

STARLINK-1265 - Pass Details

Date: 26 May 2026
Orbit: 448 x 454 km, 53.2° (Epoch: 10 June)

Event Time Altitude Azimuth Distance (km) Brightness Sun altitude
Exits shadow 04:10:39 19° 136° (SE) 1,165 5.5 -24.7°
Drops below altitude 10° 04:11:45 10° 139° (SE) 1,602 6.2 -24.4°
Sets 04:13:54 0° 142° (SE) 2,479 7.1 -23.9°
